Time,TemperatureF,DewpointF,PressureIn,WindDirection,WindDirectionDegrees,WindSpeedMPH,WindSpeedGustMPH,Humidity,HourlyPrecipIn,Conditions,Clouds,dailyrainin,SoftwareType,DateUTC
2013-05-15 00:01:00,55.0,48.0,30.13,SSW,201,0.0,0.0,77,0.00,,,0.00,,2013-05-15 07:01:00,
2013-05-15 00:11:00,55.0,48.0,30.13,SSW,201,0.0,0.0,77,0.00,,,0.00,,2013-05-15 07:11:00,
2013-05-15 00:21:00,55.0,48.0,30.13,SSW,198,0.0,0.0,76,0.00,,,0.00,,2013-05-15 07:21:00,
2013-05-15 00:31:00,55.0,48.0,30.13,WSW,240,4.0,0.0,77,0.00,,,0.00,,2013-05-15 07:31:00,
2013-05-15 00:41:00,55.0,48.0,30.13,WSW,240,4.0,0.0,77,0.00,,,0.00,,2013-05-15 07:41:00,
2013-05-15 00:52:00,55.0,48.0,30.13,WSW,252,1.0,0.0,77,0.00,,,0.00,,2013-05-15 07:52:00,
2013-05-15 01:01:00,55.0,48.0,30.13,SSE,163,0.0,0.0,77,0.00,,,0.00,,2013-05-15 08:01:00,
2013-05-15 01:11:00,55.0,48.0,30.13,South,184,1.0,0.0,77,0.00,,,0.00,,2013-05-15 08:11:00,
2013-05-15 01:21:00,55.0,48.0,30.13,South,184,1.0,0.0,77,0.00,,,0.00,,2013-05-15 08:21:00,
2013-05-15 01:31:00,55.0,48.0,30.13,SW,217,2.0,0.0,77,0.00,,,0.00,,2013-05-15 08:31:00,
2013-05-15 01:41:00,55.0,48.0,30.13,SW,224,0.0,0.0,77,0.00,,,0.00,,2013-05-15 08:41:00,
2013-05-15 01:52:00,55.0,48.0,30.13,SW,224,0.0,0.0,77,0.00,,,0.00,,2013-05-15 08:52:00,
2013-05-15 02:01:00,55.0,48.0,30.12,SW,224,0.0,0.0,77,0.00,,,0.00,,2013-05-15 09:01:00,
2013-05-15 02:11:00,55.0,48.0,30.12,SW,221,0.0,0.0,77,0.00,,,0.00,,2013-05-15 09:11:00,
2013-05-15 02:21:00,55.0,48.0,30.12,SW,221,0.0,0.0,77,0.00,,,0.00,,2013-05-15 09:21:00,
2013-05-15 02:32:00,55.0,48.0,30.12,SSW,208,0.0,0.0,77,0.00,,,0.00,,2013-05-15 09:32:00,
2013-05-15 02:42:00,55.0,48.0,30.12,SSW,208,0.0,0.0,77,0.00,,,0.00,,2013-05-15 09:42:00,
2013-05-15 02:53:00,55.0,48.0,30.12,SSW,208,0.0,0.0,77,0.00,,,0.00,,2013-05-15 09:53:00,
2013-05-15 03:02:00,55.0,48.0,30.12,SSW,208,0.0,0.0,76,0.00,,,0.00,,2013-05-15 10:02:00,
2013-05-15 03:12:00,55.0,48.0,30.11,SSW,208,0.0,0.0,76,0.00,,,0.00,,2013-05-15 10:12:00,
2013-05-15 03:22:00,55.0,48.0,30.11,SSW,208,0.0,0.0,76,0.00,,,0.00,,2013-05-15 10:22:00,
2013-05-15 03:32:00,55.0,48.0,30.11,SSW,208,0.0,0.0,76,0.00,,,0.00,,2013-05-15 10:32:00,
2013-05-15 03:42:00,55.0,48.0,30.11,SSW,208,0.0,0.0,77,0.00,,,0.00,,2013-05-15 10:42:00,
2013-05-15 03:52:00,55.0,48.0,30.11,SSW,208,0.0,0.0,77,0.00,,,0.00,,2013-05-15 10:52:00,
2013-05-15 04:05:00,54.0,47.0,30.12,SW,235,4.0,5.0,77,0.00,,,0.00,,2013-05-15 11:05:00,
2013-05-15 04:12:00,54.0,47.0,30.12,SW,222,2.0,3.0,77,0.00,,,0.00,,2013-05-15 11:12:00,
2013-05-15 04:21:00,54.0,47.0,30.12,SW,222,2.0,3.0,77,0.00,,,0.00,,2013-05-15 11:21:00,
2013-05-15 04:33:00,54.0,47.0,30.12,SSW,194,3.0,0.0,77,0.00,,,0.00,,2013-05-15 11:33:00,
2013-05-15 04:42:00,54.0,47.0,30.12,SW,214,0.0,0.0,78,0.00,,,0.00,,2013-05-15 11:42:00,
2013-05-15 04:57:00,54.0,47.0,30.12,SW,214,0.0,0.0,78,0.00,,,0.00,,2013-05-15 11:57:00,
2013-05-15 05:11:00,54.0,47.0,30.12,SW,214,0.0,0.0,78,0.00,,,0.00,,2013-05-15 12:11:00,
2013-05-15 05:22:00,54.0,47.0,30.12,SW,214,0.0,0.0,78,0.00,,,0.00,,2013-05-15 12:22:00,
2013-05-15 05:33:00,54.0,47.0,30.11,SW,217,3.0,0.0,78,0.00,,,0.00,,2013-05-15 12:33:00,
2013-05-15 05:42:00,54.0,47.0,30.11,SW,217,3.0,0.0,78,0.00,,,0.00,,2013-05-15 12:42:00,
2013-05-15 05:52:00,54.0,47.0,30.11,South,186,0.0,0.0,78,0.00,,,0.00,,2013-05-15 12:52:00,
2013-05-15 06:03:00,54.0,48.0,30.12,South,186,0.0,0.0,79,0.00,,,0.00,,2013-05-15 13:03:00,
2013-05-15 06:11:00,54.0,48.0,30.12,South,186,0.0,0.0,79,0.00,,,0.00,,2013-05-15 13:11:00,
2013-05-15 06:21:00,54.0,48.0,30.12,South,186,0.0,0.0,79,0.00,,,0.00,,2013-05-15 13:21:00,
2013-05-15 06:34:00,54.0,48.0,30.12,South,184,0.0,0.0,80,0.00,,,0.00,,2013-05-15 13:34:00,
2013-05-15 06:44:00,54.0,48.0,30.12,South,184,0.0,0.0,80,0.00,,,0.00,,2013-05-15 13:44:00,
2013-05-15 06:52:00,54.0,48.0,30.13,SW,215,1.0,0.0,80,0.00,,,0.00,,2013-05-15 13:52:00,
2013-05-15 07:02:00,54.0,48.0,30.13,South,176,0.0,0.0,79,0.00,,,0.00,,2013-05-15 14:02:00,
2013-05-15 07:11:00,54.0,48.0,30.13,South,177,0.0,2.0,79,0.00,,,0.00,,2013-05-15 14:11:00,
2013-05-15 07:21:00,54.0,48.0,30.13,South,177,0.0,2.0,79,0.00,,,0.00,,2013-05-15 14:21:00,
2013-05-15 07:32:00,54.0,48.0,30.13,SSW,200,0.0,0.0,79,0.00,,,0.00,,2013-05-15 14:32:00,
2013-05-15 07:42:00,54.0,48.0,30.13,SSW,200,0.0,0.0,79,0.00,,,0.00,,2013-05-15 14:42:00,
2013-05-15 07:52:00,54.0,48.0,30.14,SW,219,0.0,0.0,79,0.00,,,0.00,,2013-05-15 14:52:00,
2013-05-15 08:03:00,54.0,48.0,30.14,SSW,195,1.0,0.0,79,0.00,,,0.00,,2013-05-15 15:03:00,
2013-05-15 08:11:00,55.0,49.0,30.13,SW,214,0.0,0.0,79,0.00,,,0.00,,2013-05-15 15:11:00,
2013-05-15 08:35:00,55.0,49.0,30.14,SSW,212,0.0,5.0,79,0.00,,,0.00,,2013-05-15 15:35:00,
2013-05-15 08:48:00,55.0,49.0,30.14,SSW,212,0.0,5.0,79,0.00,,,0.00,,2013-05-15 15:48:00,
2013-05-15 08:57:00,56.0,49.0,30.14,West,271,1.0,4.0,77,0.00,,,0.00,,2013-05-15 15:57:00,
2013-05-15 09:13:00,58.0,50.0,30.14,WSW,239,4.0,4.0,74,0.00,,,0.00,,2013-05-15 16:13:00,
2013-05-15 09:52:00,60.0,49.0,30.14,WSW,238,4.0,4.0,68,0.00,,,0.00,,2013-05-15 16:52:00,
2013-05-15 10:04:00,60.0,49.0,30.14,SW,228,5.0,5.0,66,0.00,,,0.00,,2013-05-15 17:04:00,
2013-05-15 10:22:00,61.0,50.0,30.14,WSW,257,5.0,5.0,66,0.00,,,0.00,,2013-05-15 17:22:00,
2013-05-15 10:32:00,61.0,50.0,30.14,West,276,1.0,7.0,66,0.00,,,0.00,,2013-05-15 17:32:00,
2013-05-15 10:42:00,61.0,50.0,30.14,West,276,1.0,7.0,66,0.00,,,0.00,,2013-05-15 17:42:00,
2013-05-15 10:57:00,61.0,49.0,30.14,SW,236,6.0,6.0,64,0.00,,,0.00,,2013-05-15 17:57:00,
2013-05-15 11:11:00,61.0,50.0,30.14,West,263,5.0,5.0,66,0.00,,,0.00,,2013-05-15 18:11:00,
2013-05-15 11:22:00,61.0,50.0,30.14,West,263,5.0,5.0,66,0.00,,,0.00,,2013-05-15 18:22:00,
2013-05-15 11:32:00,61.0,50.0,30.15,West,260,6.0,9.0,66,0.00,,,0.00,,2013-05-15 18:32:00,
2013-05-15 11:42:00,61.0,50.0,30.15,West,260,6.0,9.0,66,0.00,,,0.00,,2013-05-15 18:42:00,
2013-05-15 11:53:00,61.0,50.0,30.15,West,270,6.0,6.0,66,0.00,,,0.00,,2013-05-15 18:53:00,
2013-05-15 12:04:00,61.0,50.0,30.15,West,266,9.0,11.0,66,0.00,,,0.00,,2013-05-15 19:04:00,
2013-05-15 12:13:00,61.0,50.0,30.15,West,266,9.0,11.0,66,0.00,,,0.00,,2013-05-15 19:13:00,
2013-05-15 12:21:00,61.0,49.0,30.15,WSW,249,5.0,5.0,65,0.00,,,0.00,,2013-05-15 19:21:00,
2013-05-15 12:34:00,62.0,50.0,30.15,West,260,6.0,9.0,65,0.00,,,0.00,,2013-05-15 19:34:00,
2013-05-15 12:55:00,62.0,50.0,30.14,WSW,255,8.0,8.0,65,0.00,,,0.00,,2013-05-15 19:55:00,
2013-05-15 13:01:00,62.0,49.0,30.15,WSW,248,8.0,11.0,63,0.00,,,0.00,,2013-05-15 20:01:00,
2013-05-15 13:11:00,62.0,49.0,30.15,WSW,248,8.0,11.0,63,0.00,,,0.00,,2013-05-15 20:11:00,
2013-05-15 13:22:00,62.0,50.0,30.14,WSW,243,8.0,8.0,64,0.00,,,0.00,,2013-05-15 20:22:00,
2013-05-15 13:52:00,62.0,49.0,30.15,WSW,242,9.0,9.0,63,0.00,,,0.00,,2013-05-15 20:52:00,
2013-05-15 14:03:00,62.0,49.0,30.15,WSW,242,9.0,9.0,63,0.00,,,0.00,,2013-05-15 21:03:00,
2013-05-15 14:12:00,63.0,50.0,30.14,WSW,253,8.0,8.0,62,0.00,,,0.00,,2013-05-15 21:12:00,
2013-05-15 14:28:00,63.0,50.0,30.14,WSW,253,8.0,8.0,62,0.00,,,0.00,,2013-05-15 21:28:00,
2013-05-15 14:41:00,64.0,50.0,30.14,West,274,8.0,8.0,61,0.00,,,0.00,,2013-05-15 21:41:00,
2013-05-15 14:51:00,64.0,50.0,30.14,West,274,8.0,8.0,61,0.00,,,0.00,,2013-05-15 21:51:00,
2013-05-15 14:56:00,64.0,50.0,30.15,WSW,257,5.0,6.0,60,0.00,,,0.00,,2013-05-15 21:56:00,
2013-05-15 15:14:00,64.0,50.0,30.14,WSW,249,5.0,5.0,60,0.00,,,0.00,,2013-05-15 22:14:00,
2013-05-15 15:24:00,64.0,50.0,30.15,WSW,257,9.0,11.0,60,0.00,,,0.00,,2013-05-15 22:24:00,
2013-05-15 15:34:00,64.0,51.0,30.15,WSW,252,9.0,10.0,62,0.00,,,0.00,,2013-05-15 22:34:00,
2013-05-15 15:53:00,64.0,51.0,30.14,WSW,240,5.0,10.0,62,0.00,,,0.00,,2013-05-15 22:53:00,
2013-05-15 16:04:00,64.0,51.0,30.14,West,274,8.0,8.0,63,0.00,,,0.00,,2013-05-15 23:04:00,
2013-05-15 16:22:00,64.0,52.0,30.14,WSW,245,6.0,11.0,64,0.00,,,0.00,,2013-05-15 23:22:00,
2013-05-15 16:32:00,64.0,52.0,30.14,North,4,8.0,8.0,65,0.00,,,0.00,,2013-05-15 23:32:00,
2013-05-15 16:42:00,64.0,52.0,30.14,North,4,8.0,8.0,65,0.00,,,0.00,,2013-05-15 23:42:00,
2013-05-15 17:01:00,64.0,52.0,30.13,West,271,7.0,7.0,65,0.00,,,0.00,,2013-05-16 00:01:00,
2013-05-15 17:23:00,64.0,52.0,30.13,WSW,249,8.0,8.0,65,0.00,,,0.00,,2013-05-16 00:23:00,
2013-05-15 17:34:00,63.0,52.0,30.13,WNW,294,8.0,8.0,68,0.00,,,0.00,,2013-05-16 00:34:00,
2013-05-15 17:52:00,62.0,52.0,30.13,West,260,2.0,5.0,69,0.00,,,0.00,,2013-05-16 00:52:00,
2013-05-15 18:04:00,61.0,51.0,30.13,WSW,248,9.0,9.0,70,0.00,,,0.00,,2013-05-16 01:04:00,
2013-05-15 18:11:00,60.0,51.0,30.13,West,264,7.0,9.0,72,0.00,,,0.00,,2013-05-16 01:11:00,
2013-05-15 18:21:00,60.0,51.0,30.13,West,264,7.0,9.0,72,0.00,,,0.00,,2013-05-16 01:21:00,
2013-05-15 18:31:00,60.0,51.0,30.13,SW,233,5.0,7.0,72,0.00,,,0.00,,2013-05-16 01:31:00,
2013-05-15 18:42:00,60.0,51.0,30.13,SW,233,5.0,7.0,72,0.00,,,0.00,,2013-05-16 01:42:00,
2013-05-15 18:56:00,60.0,51.0,30.13,SW,221,2.0,3.0,73,0.00,,,0.00,,2013-05-16 01:56:00,
2013-05-15 19:02:00,59.0,51.0,30.12,SW,222,1.0,0.0,74,0.00,,,0.00,,2013-05-16 02:02:00,
2013-05-15 19:11:00,59.0,51.0,30.12,SW,222,1.0,0.0,74,0.00,,,0.00,,2013-05-16 02:11:00,
2013-05-15 19:23:00,59.0,51.0,30.12,WSW,242,5.0,5.0,74,0.00,,,0.00,,2013-05-16 02:23:00,
2013-05-15 19:35:00,59.0,51.0,30.12,SW,236,4.0,0.0,74,0.00,,,0.00,,2013-05-16 02:35:00,
2013-05-15 19:41:00,59.0,51.0,30.12,SW,236,4.0,0.0,74,0.00,,,0.00,,2013-05-16 02:41:00,
2013-05-15 19:51:00,59.0,51.0,30.12,SW,236,4.0,0.0,74,0.00,,,0.00,,2013-05-16 02:51:00,
2013-05-15 20:02:00,59.0,51.0,30.12,WSW,242,1.0,5.0,75,0.00,,,0.00,,2013-05-16 03:02:00,
2013-05-15 20:14:00,58.0,50.0,30.12,SSW,197,2.0,0.0,75,0.00,,,0.00,,2013-05-16 03:14:00,
2013-05-15 20:33:00,58.0,50.0,30.12,WSW,240,3.0,3.0,75,0.00,,,0.00,,2013-05-16 03:33:00,
2013-05-15 20:43:00,58.0,50.0,30.12,WSW,240,3.0,3.0,75,0.00,,,0.00,,2013-05-16 03:43:00,
2013-05-15 20:56:00,58.0,50.0,30.12,SW,229,2.0,6.0,76,0.00,,,0.00,,2013-05-16 03:56:00,
2013-05-15 21:02:00,58.0,51.0,30.12,South,186,0.0,0.0,77,0.00,,,0.00,,2013-05-16 04:02:00,
2013-05-15 21:12:00,58.0,51.0,30.12,SW,232,4.0,5.0,77,0.00,,,0.00,,2013-05-16 04:12:00,
2013-05-15 21:22:00,58.0,51.0,30.12,SW,232,4.0,5.0,77,0.00,,,0.00,,2013-05-16 04:22:00,
2013-05-15 21:33:00,58.0,51.0,30.12,SW,232,4.0,5.0,77,0.00,,,0.00,,2013-05-16 04:33:00,
2013-05-15 21:42:00,58.0,51.0,30.12,SW,232,4.0,5.0,77,0.00,,,0.00,,2013-05-16 04:42:00,
2013-05-15 21:52:00,58.0,51.0,30.12,SW,232,4.0,5.0,77,0.00,,,0.00,,2013-05-16 04:52:00,
2013-05-15 22:32:00,57.0,50.0,30.13,SW,215,3.0,0.0,78,0.00,,,0.00,,2013-05-16 05:32:00,
2013-05-15 22:42:00,57.0,50.0,30.13,SW,215,3.0,0.0,78,0.00,,,0.00,,2013-05-16 05:42:00,
2013-05-15 22:52:00,57.0,51.0,30.12,WSW,239,0.0,0.0,79,0.00,,,0.00,,2013-05-16 05:52:00,
2013-05-15 23:01:00,57.0,51.0,30.12,SSW,200,2.0,0.0,79,0.00,,,0.00,,2013-05-16 06:01:00,
2013-05-15 23:12:00,57.0,51.0,30.12,SSW,212,3.0,0.0,79,0.00,,,0.00,,2013-05-16 06:12:00,
2013-05-15 23:22:00,57.0,51.0,30.12,SSW,212,3.0,0.0,79,0.00,,,0.00,,2013-05-16 06:22:00,
2013-05-15 23:33:00,57.0,51.0,30.12,SW,214,0.0,6.0,80,0.00,,,0.00,,2013-05-16 06:33:00,
2013-05-15 23:42:00,57.0,51.0,30.12,SW,214,0.0,6.0,80,0.00,,,0.00,,2013-05-16 06:42:00,
2013-05-15 23:52:00,56.0,50.0,30.12,SW,222,2.0,6.0,80,0.00,,,0.00,,2013-05-16 06:52:00,